Howell, MI

1:41 PM EST on January 17, 2017 (GMT -0500)
Livingston County

Weather History for KOZW - September, 2012

Change the Weather History Date:

Wednesday, September 19, 2012

  Actual Average Record
Temperature  
Mean Temperature 53 °F -  
Max Temperature 66 °F 71 °F 87 °F (2002)
Min Temperature 40 °F 50 °F 38 °F (2014)
Degree Days  
Heating Degree Days 12    
Growing Degree Days 3 (Base 50)    
Moisture  
Dew Point 33 °F    
Average Humidity 51    
Maximum Humidity 85    
Minimum Humidity 24    
Precipitation  
Precipitation 0.00 in - - ()
Sea Level Pressure  
Sea Level Pressure 30.02 in    
Wind  
Wind Speed 6 mph (SSW)    
Max Wind Speed 15 mph    
Max Gust Speed 22 mph    
Visibility 10 miles    
Events      
Averages and records for this station are not official NWS values.
T = Trace of Precipitation, MM = Missing Value Source: NWS Daily Summary

Daily Weather History Graph

Daily Weather History Graph

Search for Another Location

Airport or City:

Trip Planner

Search our weather history database for the weather conditions in past years. The results will help you decide how hot, cold, wet, or windy it might be!

Date:

Astronomy

Sep. 19, 2012 Rise Set
Actual Time 7:20 AM EDT 7:37 PM EDT
Civil Twilight 6:52 AM EDT 8:05 PM EDT
Nautical Twilight 6:19 AM EDT 8:38 PM EDT
Astronomical Twilight 5:45 AM EDT 9:12 PM EDT
Moon 11:36 AM EDT (9/19) 9:39 PM EDT (9/19)
Length of Visible Light 13h 13m
Length of Day
12h 17m
Waxing Crescent, 17% of the Moon is Illuminated
Sep 19
Waxing Crescent
Sep 22
First Quarter
Sep 29
Full
Oct 8
Last Quarter
Oct 15
New

Hourly Weather History & Observations

Time (EDT) Temp. Windchill Dew Point Humidity Pressure Visibility Wind Dir Wind Speed Gust Speed Precip Events Conditions
12:15 AM 41.7 °F 38.8 °F 34.7 °F 76% 29.97 in 10.0 mi WSW 4.6 mph - N/A   Clear
12:34 AM 41.0 °F 37.1 °F 34.9 °F 79% 29.98 in 10.0 mi WSW 5.8 mph - N/A   Clear
12:55 AM 41.0 °F 39.0 °F 35.4 °F 81% 29.98 in 10.0 mi WSW 3.5 mph - N/A   Clear
1:15 AM 40.3 °F 36.3 °F 34.7 °F 80% 29.99 in 10.0 mi WSW 5.8 mph - N/A   Clear
1:55 AM 41.0 °F 37.1 °F 35.8 °F 82% 29.99 in 10.0 mi WSW 5.8 mph - N/A   Mostly Cloudy
2:15 AM 41.7 °F 39.8 °F 36.1 °F 81% 30.00 in 10.0 mi West 3.5 mph - N/A   Mostly Cloudy
2:35 AM 41.9 °F 40.0 °F 36.0 °F 79% 30.00 in 10.0 mi WSW 3.5 mph - N/A   Overcast
2:55 AM 41.7 °F 39.8 °F 35.6 °F 79% 30.00 in 10.0 mi WSW 3.5 mph - N/A   Mostly Cloudy
3:15 AM 41.0 °F 38.0 °F 35.1 °F 79% 30.00 in 10.0 mi SW 4.6 mph - N/A   Scattered Clouds
3:35 AM 40.6 °F - 35.2 °F 81% 30.01 in 10.0 mi Calm Calm - N/A   Scattered Clouds
3:55 AM 41.7 °F 39.8 °F 36.0 °F 80% 30.01 in 10.0 mi SW 3.5 mph - N/A   Overcast
4:14 AM 42.3 °F - 36.5 °F 80% 30.02 in 10.0 mi Calm Calm - N/A   Overcast
4:35 AM 42.4 °F - 36.5 °F 79% 30.02 in 10.0 mi Calm Calm - N/A   Overcast
4:55 AM 42.1 °F 40.2 °F 36.5 °F 81% 30.03 in 10.0 mi WSW 3.5 mph - N/A   Overcast
5:14 AM 41.9 °F 40.0 °F 36.0 °F 79% 30.03 in 10.0 mi WSW 3.5 mph - N/A   Mostly Cloudy
5:55 AM 41.4 °F 39.4 °F 36.0 °F 81% 30.03 in 10.0 mi WSW 3.5 mph - N/A   Clear
6:14 AM 41.0 °F - 35.8 °F 82% 30.04 in 10.0 mi Calm Calm - N/A   Clear
6:35 AM 41.4 °F 39.4 °F 36.1 °F 82% 30.04 in 10.0 mi WSW 3.5 mph - N/A   Clear
6:55 AM 40.1 °F 38.0 °F 35.6 °F 84% 30.05 in 10.0 mi SW 3.5 mph - N/A   Clear
7:14 AM 40.3 °F 38.2 °F 35.8 °F 84% 30.06 in 10.0 mi WSW 3.5 mph - N/A   Clear
7:35 AM 40.1 °F 38.0 °F 35.8 °F 85% 30.07 in 10.0 mi SW 3.5 mph - N/A   Clear
7:55 AM 40.8 °F 38.8 °F 36.5 °F 85% 30.07 in 10.0 mi WSW 3.5 mph - N/A   Clear
8:15 AM 42.8 °F 41.1 °F 38.1 °F 84% 30.08 in 10.0 mi WSW 3.5 mph - N/A   Clear
8:35 AM 44.8 °F 42.4 °F 39.0 °F 80% 30.08 in 10.0 mi WSW 4.6 mph - N/A   Clear
8:55 AM 46.2 °F 44.1 °F 39.6 °F 78% 30.08 in 10.0 mi WSW 4.6 mph - N/A   Clear
9:15 AM 48.0 °F - 39.9 °F 74% 30.08 in 10.0 mi SW 3.5 mph - N/A   Clear
9:35 AM 50.4 °F - 39.6 °F 66% 30.09 in 10.0 mi SW 3.5 mph - N/A   Clear
9:55 AM 52.9 °F - 38.1 °F 57% 30.09 in 10.0 mi SW 4.6 mph - N/A   Clear
10:15 AM 54.9 °F - 35.4 °F 48% 30.09 in 10.0 mi WSW 4.6 mph - N/A   Clear
10:54 AM 57.2 °F - 31.8 °F 38% 30.10 in 10.0 mi WSW 8.1 mph - N/A   Clear
11:35 AM 59.0 °F - 30.7 °F 34% 30.10 in 10.0 mi WSW 11.5 mph - N/A   Clear
11:54 AM 59.2 °F - 30.4 °F 34% 30.09 in 10.0 mi WSW 8.1 mph - N/A   Clear
12:15 PM 60.6 °F - 30.0 °F 31% 30.09 in 10.0 mi WSW 12.7 mph 16.1 mph N/A   Clear
12:35 PM 60.6 °F - 29.1 °F 30% 30.09 in 10.0 mi WSW 10.4 mph - N/A   Clear
12:55 PM 61.9 °F - 27.7 °F 27% 30.08 in 10.0 mi SW 8.1 mph 16.1 mph N/A   Clear
1:15 PM 62.1 °F - 29.3 °F 29% 30.08 in 10.0 mi SSW 11.5 mph 18.4 mph N/A   Clear
1:35 PM 61.9 °F - 28.2 °F 28% 30.07 in 10.0 mi SW 11.5 mph 16.1 mph N/A   Clear
1:55 PM 63.3 °F - 26.4 °F 25% 30.07 in 10.0 mi SSW 9.2 mph 16.1 mph N/A   Clear
2:15 PM 63.9 °F - 28.0 °F 26% 30.06 in 10.0 mi SSW 12.7 mph 17.3 mph N/A   Clear
2:34 PM 64.2 °F - 27.9 °F 25% 30.06 in 10.0 mi SW 11.5 mph 16.1 mph N/A   Clear
2:55 PM 64.6 °F - 28.2 °F 25% 30.05 in 10.0 mi South 10.4 mph 18.4 mph N/A   Clear
3:15 PM 64.4 °F - 28.2 °F 26% 30.04 in 10.0 mi SSW 11.5 mph - N/A   Clear
3:35 PM 65.3 °F - 28.9 °F 26% 30.04 in 10.0 mi SW 12.7 mph 19.6 mph N/A   Clear
3:55 PM 64.8 °F - 28.4 °F 25% 30.03 in 10.0 mi South 13.8 mph 18.4 mph N/A   Clear
4:15 PM 65.5 °F - 29.5 °F 26% 30.02 in 10.0 mi South 15.0 mph 20.7 mph N/A   Clear
4:35 PM 66.0 °F - 29.8 °F 26% 30.02 in 10.0 mi South 12.7 mph - N/A   Clear
4:55 PM 65.8 °F - 28.6 °F 25% 30.01 in 10.0 mi SSW 11.5 mph 19.6 mph N/A   Clear
5:15 PM 66.2 °F - 28.4 °F 24% 30.01 in 10.0 mi South 12.7 mph 19.6 mph N/A   Clear
5:35 PM 66.2 °F - 29.5 °F 25% 30.00 in 10.0 mi South 10.4 mph 19.6 mph N/A   Clear
5:55 PM 65.7 °F - 28.4 °F 25% 30.00 in 10.0 mi South 10.4 mph 18.4 mph N/A   Clear
6:14 PM 64.2 °F - 27.3 °F 25% 29.99 in 10.0 mi South 12.7 mph 19.6 mph N/A   Clear
6:35 PM 64.4 °F - 28.2 °F 26% 29.98 in 10.0 mi South 11.5 mph 20.7 mph N/A   Mostly Cloudy
6:55 PM 63.7 °F - 28.6 °F 27% 29.97 in 10.0 mi South 13.8 mph 19.6 mph N/A   Mostly Cloudy
7:14 PM 63.5 °F - 28.4 °F 27% 29.97 in 10.0 mi South 11.5 mph 18.4 mph N/A   Mostly Cloudy
7:35 PM 62.8 °F - 28.6 °F 27% 29.98 in 10.0 mi South 10.4 mph - N/A   Mostly Cloudy
7:55 PM 62.1 °F - 29.1 °F 29% 29.98 in 10.0 mi South 12.7 mph 16.1 mph N/A   Scattered Clouds
8:14 PM 61.3 °F - 29.8 °F 30% 29.98 in 10.0 mi South 11.5 mph - N/A   Clear
8:35 PM 61.2 °F - 30.6 °F 32% 29.98 in 10.0 mi South 10.4 mph - N/A   Scattered Clouds
9:15 PM 60.3 °F - 31.1 °F 33% 29.97 in 10.0 mi South 11.5 mph 17.3 mph N/A   Scattered Clouds
9:35 PM 59.9 °F - 31.3 °F 34% 29.96 in 10.0 mi SSE 12.7 mph 18.4 mph N/A   Scattered Clouds
9:54 PM 59.9 °F - 31.5 °F 34% 29.96 in 10.0 mi South 9.2 mph 16.1 mph N/A   Clear
10:15 PM 59.2 °F - 31.5 °F 35% 29.97 in 10.0 mi South 11.5 mph 17.3 mph N/A   Clear
10:34 PM 59.0 °F - 31.6 °F 36% 29.96 in 10.0 mi South 13.8 mph 18.4 mph N/A   Clear
10:55 PM 58.5 °F - 32.0 °F 37% 29.96 in 10.0 mi South 11.5 mph - N/A   Clear
11:15 PM 58.6 °F - 32.0 °F 37% 29.95 in 10.0 mi South 15.0 mph - N/A   Clear
11:34 PM 58.3 °F - 32.0 °F 37% 29.95 in 10.0 mi South 15.0 mph 21.9 mph N/A   Clear
11:55 PM 57.7 °F - 32.0 °F 38% 29.95 in 10.0 mi South 11.5 mph 18.4 mph N/A   Clear